Location: Newark
(34.1333°N, 7.9667°W)
Time: 10:11:56
(UTC+00:00)

COSMOS 2251 DEB - Pass Details

Date: 01 March 2024
Orbit: 726 x 941 km, 73.7° (Epoch: 12 April)

Event Time Altitude Azimuth Distance (km) Brightness Sun altitude
Exits shadow 04:20:22 45° 125° (SE) 1,239 ? -33.7°
Maximum altitude 04:21:09 47° 102° (ESE) 1,196 ? -33.5°
Drops below altitude 10° 04:26:48 10° 30° (NNE) 2,563 ? -32.4°
Sets 04:29:18 0° 25° (NNE) 3,476 ? -31.9°
